Auburn, IN

12:41 AM EDT on March 24, 2017 (GMT -0400)
Auburn

Weather History for KGWB - February, 2013

Change the Weather History Date:

Thursday, February 21, 2013

  Actual Average (KFWA) Record (KFWA)
Temperature  
Mean Temperature 24 °F -  
Max Temperature 28 °F 40 °F 68 °F (1930)
Min Temperature 21 °F 23 °F -8 °F (1978)
Degree Days  
Heating Degree Days 40    
Moisture  
Dew Point 16 °F    
Average Humidity 70    
Maximum Humidity 80    
Minimum Humidity 64    
Precipitation  
Precipitation 0.00 in - - ()
Sea Level Pressure  
Sea Level Pressure 30.27 in    
Wind  
Wind Speed 8 mph (NE)    
Max Wind Speed 18 mph    
Max Gust Speed 26 mph    
Visibility 10 miles    
Events Snow    
Averages and records for this station are not official NWS values.
T = Trace of Precipitation, MM = Missing Value Source: NWS Daily Summary

Daily Weather History Graph

Daily Weather History Graph

Search for Another Location

Airport or City:

Trip Planner

Search our weather history database for the weather conditions in past years. The results will help you decide how hot, cold, wet, or windy it might be!

Date:

Astronomy

Feb. 21, 2013 Rise Set
Actual Time 7:26 AM EST 6:21 PM EST
Civil Twilight 6:58 AM EST 6:49 PM EST
Nautical Twilight 6:26 AM EST 7:22 PM EST
Astronomical Twilight 5:54 AM EST 7:54 PM EST
Moon 2:34 PM EST (2/21) 4:32 AM EST (2/21)
Length of Visible Light 11h 51m
Length of Day
10h 55m
Waxing Gibbous, 83% of the Moon is Illuminated
Feb 21
Waxing Gibbous
Feb 25
Full
Mar 4
Last Quarter
Mar 11
New
Mar 19
First Quarter

Hourly Weather History & Observations

Time (EST) Temp. Windchill Dew Point Humidity Pressure Visibility Wind Dir Wind Speed Gust Speed Precip Events Conditions
12:15 AM 23.0 °F 12.4 °F 14.0 °F 68% 30.27 in 10.0 mi NW 10.4 mph - N/A   Overcast
12:35 AM 23.0 °F 15.8 °F 14.0 °F 68% 30.27 in 10.0 mi NW 5.8 mph - N/A   Overcast
12:55 AM 23.0 °F 12.4 °F 14.0 °F 68% 30.28 in 10.0 mi NW 10.4 mph - N/A Snow Light Snow
1:15 AM 23.0 °F 13.9 °F 14.0 °F 68% 30.28 in 10.0 mi NW 8.1 mph - N/A   Overcast
1:35 AM 23.0 °F 14.7 °F 14.0 °F 68% 30.28 in 10.0 mi NNW 6.9 mph - N/A   Overcast
1:55 AM 23.0 °F 13.9 °F 14.0 °F 68% 30.28 in 10.0 mi NNW 8.1 mph - N/A   Overcast
2:15 AM 23.0 °F 15.8 °F 14.0 °F 68% 30.28 in 10.0 mi NW 5.8 mph - N/A   Overcast
2:35 AM 23.0 °F 13.9 °F 14.0 °F 68% 30.28 in 10.0 mi NW 8.1 mph - N/A   Overcast
2:55 AM 23.0 °F 13.9 °F 14.0 °F 68% 30.28 in 10.0 mi NNW 8.1 mph - N/A   Overcast
3:15 AM 23.0 °F 13.9 °F 14.0 °F 68% 30.29 in 10.0 mi NW 8.1 mph - N/A   Overcast
3:35 AM 23.0 °F 13.1 °F 14.0 °F 68% 30.29 in 10.0 mi WNW 9.2 mph - N/A   Overcast
3:55 AM 23.0 °F 15.8 °F 14.0 °F 68% 30.29 in 10.0 mi NW 5.8 mph - N/A   Overcast
4:15 AM 23.0 °F 13.9 °F 14.0 °F 68% 30.28 in 10.0 mi NNW 8.1 mph - N/A   Overcast
4:35 AM 23.0 °F 15.8 °F 14.0 °F 68% 30.29 in 10.0 mi NNW 5.8 mph - N/A   Overcast
4:55 AM 23.0 °F 15.8 °F 14.0 °F 68% 30.29 in 10.0 mi North 5.8 mph - N/A   Overcast
5:15 AM 23.0 °F 14.7 °F 14.0 °F 68% 30.29 in 10.0 mi NNW 6.9 mph - N/A   Overcast
5:35 AM 23.0 °F 15.8 °F 14.0 °F 68% 30.29 in 10.0 mi NW 5.8 mph - N/A   Overcast
5:55 AM 23.0 °F 17.0 °F 15.8 °F 74% 30.30 in 10.0 mi NNW 4.6 mph - N/A   Overcast
6:15 AM 21.2 °F 12.6 °F 14.0 °F 74% 30.31 in 10.0 mi NW 6.9 mph - N/A   Overcast
6:55 AM 21.2 °F 12.6 °F 14.0 °F 74% 30.32 in 10.0 mi North 6.9 mph - N/A   Overcast
7:15 AM 21.2 °F 13.6 °F 14.0 °F 74% 30.33 in 10.0 mi NNW 5.8 mph - N/A   Overcast
7:35 AM 21.2 °F 13.6 °F 14.0 °F 74% 30.35 in 10.0 mi NNW 5.8 mph - N/A   Overcast
7:55 AM 23.0 °F 14.7 °F 14.0 °F 68% 30.33 in 10.0 mi NNW 6.9 mph - N/A   Overcast
8:15 AM 23.0 °F 15.8 °F 14.0 °F 68% 30.32 in 10.0 mi NNE 5.8 mph - N/A   Overcast
8:35 AM 23.0 °F 17.0 °F 15.8 °F 74% 30.33 in 10.0 mi NNE 4.6 mph - N/A   Overcast
8:55 AM 23.0 °F 17.0 °F 15.8 °F 74% 30.34 in 10.0 mi North 4.6 mph - N/A   Overcast
9:15 AM 23.0 °F 18.4 °F 15.8 °F 74% 30.33 in 10.0 mi NNE 3.5 mph - N/A   Overcast
9:35 AM 23.0 °F 15.8 °F 15.8 °F 74% 30.35 in 10.0 mi ENE 5.8 mph - N/A   Overcast
9:55 AM 26.6 °F 22.6 °F 15.8 °F 64% 30.34 in 10.0 mi North 3.5 mph - N/A   Overcast
10:15 AM 24.8 °F 20.5 °F 15.8 °F 69% 30.35 in 10.0 mi NNW 3.5 mph - N/A   Overcast
10:35 AM 24.8 °F 16.9 °F 15.8 °F 69% 30.34 in 10.0 mi NNE 6.9 mph - N/A   Overcast
10:55 AM 26.6 °F 19.1 °F 15.8 °F 64% 30.34 in 10.0 mi NE 6.9 mph - N/A   Overcast
11:15 AM 26.6 °F 19.1 °F 17.6 °F 69% 30.32 in 10.0 mi NE 6.9 mph - N/A Snow Light Snow
11:35 AM 26.6 °F 19.1 °F 17.6 °F 69% 30.32 in 5.0 mi ENE 6.9 mph - N/A Snow Light Snow
12:15 PM 26.6 °F 22.6 °F 17.6 °F 69% 30.35 in 4.0 mi East 3.5 mph - N/A Snow Light Snow
12:35 PM 28.4 °F 23.3 °F 17.6 °F 64% 30.34 in 10.0 mi East 4.6 mph - N/A   Overcast
12:55 PM 26.6 °F 21.2 °F 17.6 °F 69% 30.33 in 10.0 mi East 4.6 mph - N/A   Overcast
1:15 PM 28.4 °F 23.3 °F 17.6 °F 64% 30.31 in 10.0 mi East 4.6 mph - N/A   Overcast
1:35 PM 28.4 °F 22.2 °F 17.6 °F 64% 30.29 in 10.0 mi East 5.8 mph - N/A   Overcast
1:55 PM 28.4 °F 19.1 °F 17.6 °F 64% 30.28 in 10.0 mi East 10.4 mph - N/A   Mostly Cloudy
2:15 PM 28.4 °F 18.5 °F 19.4 °F 69% 30.27 in 10.0 mi ENE 11.5 mph - N/A   Mostly Cloudy
2:35 PM 28.4 °F 19.1 °F 19.4 °F 69% 30.25 in 10.0 mi East 10.4 mph - N/A   Overcast
2:55 PM 28.4 °F 19.7 °F 19.4 °F 69% 30.24 in 10.0 mi ENE 9.2 mph - N/A   Overcast
3:15 PM 28.4 °F 18.5 °F 19.4 °F 69% 30.21 in 10.0 mi ENE 11.5 mph - N/A   Overcast
3:35 PM 28.4 °F 18.5 °F 19.4 °F 69% 30.23 in 10.0 mi East 11.5 mph - N/A   Overcast
3:55 PM 28.4 °F 18.5 °F 19.4 °F 69% 30.25 in 10.0 mi East 11.5 mph - N/A   Overcast
4:15 PM 28.4 °F 18.5 °F 19.4 °F 69% 30.26 in 10.0 mi ESE 11.5 mph - N/A   Overcast
4:35 PM 28.4 °F 20.4 °F 19.4 °F 69% 30.26 in 10.0 mi East 8.1 mph - N/A   Overcast
4:55 PM 28.4 °F 19.7 °F 19.4 °F 69% 30.25 in 10.0 mi East 9.2 mph - N/A   Overcast
5:15 PM 28.4 °F 18.5 °F 19.4 °F 69% 30.26 in 10.0 mi East 11.5 mph - N/A   Overcast
5:35 PM 28.4 °F 19.7 °F 19.4 °F 69% 30.27 in 10.0 mi East 9.2 mph - N/A   Overcast
5:55 PM 26.6 °F 16.8 °F 19.4 °F 74% 30.27 in 10.0 mi East 10.4 mph - N/A   Overcast
6:15 PM 26.6 °F 17.5 °F 19.4 °F 74% 30.25 in 10.0 mi East 9.2 mph - N/A   Overcast
6:35 PM 26.6 °F 16.2 °F 17.6 °F 69% 30.24 in 10.0 mi East 11.5 mph 16.1 mph N/A   Overcast
6:55 PM 26.6 °F 15.7 °F 19.4 °F 74% 30.24 in 10.0 mi East 12.7 mph 21.9 mph N/A   Overcast
7:15 PM 26.6 °F 14.7 °F 17.6 °F 69% 30.25 in 10.0 mi East 15.0 mph 19.6 mph N/A   Overcast
7:35 PM 26.6 °F 15.2 °F 17.6 °F 69% 30.25 in 10.0 mi East 13.8 mph 17.3 mph N/A   Overcast
7:55 PM 26.6 °F 15.7 °F 17.6 °F 69% 30.24 in 10.0 mi East 12.7 mph 21.9 mph N/A   Overcast
8:15 PM 24.8 °F 11.1 °F 17.6 °F 74% 30.22 in 10.0 mi East 18.4 mph 24.2 mph N/A   Overcast
8:35 PM 23.0 °F 9.6 °F 17.6 °F 80% 30.21 in 10.0 mi East 16.1 mph 26.5 mph N/A   Mostly Cloudy
8:55 PM 23.0 °F 10.6 °F 17.6 °F 80% 30.21 in 10.0 mi East 13.8 mph 20.7 mph N/A   Scattered Clouds
9:15 PM 23.0 °F 10.6 °F 15.8 °F 74% 30.21 in 10.0 mi East 13.8 mph 23.0 mph N/A   Clear
9:35 PM 23.0 °F 11.7 °F 15.8 °F 74% 30.20 in 10.0 mi East 11.5 mph 18.4 mph N/A   Clear
10:15 PM 23.0 °F 10.6 °F 14.0 °F 68% 30.20 in 10.0 mi East 13.8 mph 23.0 mph N/A   Scattered Clouds
10:35 PM 23.0 °F 11.1 °F 14.0 °F 68% 30.21 in 10.0 mi East 12.7 mph 19.6 mph N/A   Mostly Cloudy
10:55 PM 23.0 °F 10.6 °F 14.0 °F 68% 30.19 in 10.0 mi East 13.8 mph 19.6 mph N/A   Overcast
11:15 PM 23.0 °F 10.6 °F 15.8 °F 74% 30.17 in 10.0 mi East 13.8 mph 19.6 mph N/A   Overcast
11:35 PM 23.0 °F 10.6 °F 15.8 °F 74% 30.15 in 10.0 mi East 13.8 mph 19.6 mph N/A   Overcast
11:55 PM 23.0 °F 10.1 °F 15.8 °F 74% 30.15 in 10.0 mi East 15.0 mph 18.4 mph N/A   Overcast